﻿測定場所 (Monitoring sites),日付 (Measurement date),時間 (Measurement time),線量率 最大値 (max) μGy/h,線量率 最小値 (min) μGy/h,線量率 平均値 (average) μGy/h,
江戸川 (Edogawa),2021-08-22,23:01～24:00,0.0445,0.0386,0.0410,
江戸川 (Edogawa),2021-08-22,22:01～23:00,0.0450,0.0387,0.0412,
江戸川 (Edogawa),2021-08-22,21:01～22:00,0.0436,0.0379,0.0411,
江戸川 (Edogawa),2021-08-22,20:01～21:00,0.0440,0.0389,0.0410,
江戸川 (Edogawa),2021-08-22,19:01～20:00,0.0437,0.0391,0.0412,
江戸川 (Edogawa),2021-08-22,18:01～19:00,0.0437,0.0385,0.0411,
江戸川 (Edogawa),2021-08-22,17:01～18:00,0.0434,0.0387,0.0407,
江戸川 (Edogawa),2021-08-22,16:01～17:00,0.0435,0.0365,0.0407,
江戸川 (Edogawa),2021-08-22,15:01～16:00,0.0429,0.0368,0.0406,
江戸川 (Edogawa),2021-08-22,14:01～15:00,0.0433,0.0370,0.0405,
江戸川 (Edogawa),2021-08-22,13:01～14:00,0.0440,0.0380,0.0405,
江戸川 (Edogawa),2021-08-22,12:01～13:00,0.0441,0.0367,0.0406,
江戸川 (Edogawa),2021-08-22,11:01～12:00,0.0429,0.0377,0.0402,
江戸川 (Edogawa),2021-08-22,10:01～11:00,0.0438,0.0377,0.0404,
江戸川 (Edogawa),2021-08-22,09:01～10:00,0.0443,0.0375,0.0406,
江戸川 (Edogawa),2021-08-22,08:01～09:00,0.0434,0.0387,0.0408,
江戸川 (Edogawa),2021-08-22,07:01～08:00,0.0442,0.0389,0.0415,
江戸川 (Edogawa),2021-08-22,06:01～07:00,0.0439,0.0368,0.0407,
江戸川 (Edogawa),2021-08-22,05:01～06:00,0.0443,0.0375,0.0411,
江戸川 (Edogawa),2021-08-22,04:01～05:00,0.0448,0.0377,0.0411,
江戸川 (Edogawa),2021-08-22,03:01～04:00,0.0447,0.0387,0.0414,
江戸川 (Edogawa),2021-08-22,02:01～03:00,0.0453,0.0384,0.0413,
江戸川 (Edogawa),2021-08-22,01:01～02:00,0.0433,0.0383,0.0409,
江戸川 (Edogawa),2021-08-22,00:01～01:00,0.0436,0.0379,0.0407,
江戸川 (Edogawa),2021-08-21,23:01～24:00,0.0436,0.0370,0.0409,
江戸川 (Edogawa),2021-08-21,22:01～23:00,0.0452,0.0373,0.0408,
江戸川 (Edogawa),2021-08-21,21:01～22:00,0.0442,0.0378,0.0410,
江戸川 (Edogawa),2021-08-21,20:01～21:00,0.0437,0.0378,0.0410,
江戸川 (Edogawa),2021-08-21,19:01～20:00,0.0437,0.0369,0.0409,
江戸川 (Edogawa),2021-08-21,18:01～19:00,0.0435,0.0383,0.0405,
江戸川 (Edogawa),2021-08-21,17:01～18:00,0.0448,0.0372,0.0411,
江戸川 (Edogawa),2021-08-21,16:01～17:00,0.0453,0.0380,0.0410,
江戸川 (Edogawa),2021-08-21,15:01～16:00,0.0438,0.0387,0.0408,
江戸川 (Edogawa),2021-08-21,14:01～15:00,0.0436,0.0380,0.0409,
江戸川 (Edogawa),2021-08-21,13:01～14:00,0.0439,0.0383,0.0409,
江戸川 (Edogawa),2021-08-21,12:01～13:00,0.0445,0.0387,0.0408,
江戸川 (Edogawa),2021-08-21,11:01～12:00,0.0438,0.0383,0.0410,
江戸川 (Edogawa),2021-08-21,10:01～11:00,0.0431,0.0371,0.0408,
江戸川 (Edogawa),2021-08-21,09:01～10:00,0.0441,0.0381,0.0409,
江戸川 (Edogawa),2021-08-21,08:01～09:00,0.0434,0.0371,0.0408,
江戸川 (Edogawa),2021-08-21,07:01～08:00,0.0443,0.0374,0.0407,
江戸川 (Edogawa),2021-08-21,06:01～07:00,0.0447,0.0387,0.0414,
江戸川 (Edogawa),2021-08-21,05:01～06:00,0.0446,0.0377,0.0410,
江戸川 (Edogawa),2021-08-21,04:01～05:00,0.0441,0.0368,0.0406,
江戸川 (Edogawa),2021-08-21,03:01～04:00,0.0448,0.0379,0.0406,
江戸川 (Edogawa),2021-08-21,02:01～03:00,0.0432,0.0369,0.0406,
江戸川 (Edogawa),2021-08-21,01:01～02:00,0.0438,0.0381,0.0409,
江戸川 (Edogawa),2021-08-21,00:01～01:00,0.0442,0.0380,0.0410,
江戸川 (Edogawa),2021-08-20,23:01～24:00,0.0453,0.0382,0.0411,
江戸川 (Edogawa),2021-08-20,22:01～23:00,0.0440,0.0376,0.0406,
江戸川 (Edogawa),2021-08-20,21:01～22:00,0.0434,0.0382,0.0408,
江戸川 (Edogawa),2021-08-20,20:01～21:00,0.0429,0.0372,0.0407,
江戸川 (Edogawa),2021-08-20,19:01～20:00,0.0435,0.0367,0.0408,
江戸川 (Edogawa),2021-08-20,18:01～19:00,0.0435,0.0369,0.0407,
江戸川 (Edogawa),2021-08-20,17:01～18:00,0.0436,0.0375,0.0410,
江戸川 (Edogawa),2021-08-20,16:01～17:00,0.0430,0.0370,0.0407,
江戸川 (Edogawa),2021-08-20,15:01～16:00,0.0443,0.0373,0.0407,
江戸川 (Edogawa),2021-08-20,14:01～15:00,0.0441,0.0374,0.0407,
江戸川 (Edogawa),2021-08-20,13:01～14:00,0.0441,0.0370,0.0404,
江戸川 (Edogawa),2021-08-20,12:01～13:00,0.0428,0.0369,0.0399,
江戸川 (Edogawa),2021-08-20,11:01～12:00,0.0452,0.0367,0.0405,
江戸川 (Edogawa),2021-08-20,10:01～11:00,0.0420,0.0372,0.0399,
江戸川 (Edogawa),2021-08-20,09:01～10:00,0.0436,0.0376,0.0404,
江戸川 (Edogawa),2021-08-20,08:01～09:00,0.0440,0.0367,0.0406,
江戸川 (Edogawa),2021-08-20,07:01～08:00,0.0434,0.0368,0.0407,
江戸川 (Edogawa),2021-08-20,06:01～07:00,0.0436,0.0373,0.0405,
江戸川 (Edogawa),2021-08-20,05:01～06:00,0.0436,0.0381,0.0404,
江戸川 (Edogawa),2021-08-20,04:01～05:00,0.0444,0.0375,0.0403,
江戸川 (Edogawa),2021-08-20,03:01～04:00,0.0430,0.0376,0.0401,
江戸川 (Edogawa),2021-08-20,02:01～03:00,0.0426,0.0380,0.0404,
江戸川 (Edogawa),2021-08-20,01:01～02:00,0.0432,0.0373,0.0403,
江戸川 (Edogawa),2021-08-20,00:01～01:00,0.0454,0.0378,0.0405,
江戸川 (Edogawa),2021-08-19,23:01～24:00,0.0429,0.0375,0.0406,
江戸川 (Edogawa),2021-08-19,22:01～23:00,0.0451,0.0384,0.0413,
江戸川 (Edogawa),2021-08-19,21:01～22:00,0.0434,0.0372,0.0402,
江戸川 (Edogawa),2021-08-19,20:01～21:00,0.0448,0.0372,0.0406,
江戸川 (Edogawa),2021-08-19,19:01～20:00,0.0434,0.0370,0.0405,
江戸川 (Edogawa),2021-08-19,18:01～19:00,0.0432,0.0376,0.0402,
江戸川 (Edogawa),2021-08-19,17:01～18:00,0.0446,0.0373,0.0406,
江戸川 (Edogawa),2021-08-19,16:01～17:00,0.0442,0.0367,0.0400,
江戸川 (Edogawa),2021-08-19,15:01～16:00,0.0432,0.0365,0.0398,
江戸川 (Edogawa),2021-08-19,14:01～15:00,0.0426,0.0366,0.0400,
江戸川 (Edogawa),2021-08-19,13:01～14:00,0.0440,0.0369,0.0404,
江戸川 (Edogawa),2021-08-19,12:01～13:00,0.0430,0.0377,0.0402,
江戸川 (Edogawa),2021-08-19,11:01～12:00,0.0439,0.0378,0.0401,
江戸川 (Edogawa),2021-08-19,10:01～11:00,0.0436,0.0369,0.0405,
江戸川 (Edogawa),2021-08-19,09:01～10:00,0.0432,0.0367,0.0402,
江戸川 (Edogawa),2021-08-19,08:01～09:00,0.0432,0.0364,0.0397,
江戸川 (Edogawa),2021-08-19,07:01～08:00,0.0430,0.0379,0.0400,
江戸川 (Edogawa),2021-08-19,06:01～07:00,0.0430,0.0364,0.0395,
江戸川 (Edogawa),2021-08-19,05:01～06:00,0.0431,0.0379,0.0401,
江戸川 (Edogawa),2021-08-19,04:01～05:00,0.0429,0.0365,0.0399,
江戸川 (Edogawa),2021-08-19,03:01～04:00,0.0424,0.0367,0.0397,
江戸川 (Edogawa),2021-08-19,02:01～03:00,0.0432,0.0373,0.0401,
江戸川 (Edogawa),2021-08-19,01:01～02:00,0.0435,0.0371,0.0396,
江戸川 (Edogawa),2021-08-19,00:01～01:00,0.0422,0.0368,0.0398,
江戸川 (Edogawa),2021-08-18,23:01～24:00,0.0438,0.0371,0.0400,
江戸川 (Edogawa),2021-08-18,22:01～23:00,0.0429,0.0367,0.0398,
江戸川 (Edogawa),2021-08-18,21:01～22:00,0.0438,0.0370,0.0400,
江戸川 (Edogawa),2021-08-18,20:01～21:00,0.0425,0.0371,0.0399,
江戸川 (Edogawa),2021-08-18,19:01～20:00,0.0431,0.0370,0.0398,
江戸川 (Edogawa),2021-08-18,18:01～19:00,0.0427,0.0362,0.0398,
江戸川 (Edogawa),2021-08-18,17:01～18:00,0.0427,0.0368,0.0399,
江戸川 (Edogawa),2021-08-18,16:01～17:00,0.0432,0.0359,0.0395,
江戸川 (Edogawa),2021-08-18,15:01～16:00,0.0426,0.0362,0.0396,
江戸川 (Edogawa),2021-08-18,14:01～15:00,0.0427,0.0367,0.0395,
江戸川 (Edogawa),2021-08-18,13:01～14:00,0.0420,0.0358,0.0385,
江戸川 (Edogawa),2021-08-18,12:01～13:00,0.0426,0.0365,0.0403,
江戸川 (Edogawa),2021-08-18,11:01～12:00,0.0429,0.0372,0.0403,
江戸川 (Edogawa),2021-08-18,10:01～11:00,0.0441,0.0368,0.0403,
江戸川 (Edogawa),2021-08-18,09:01～10:00,0.0429,0.0368,0.0397,
江戸川 (Edogawa),2021-08-18,08:01～09:00,0.0436,0.0361,0.0399,
江戸川 (Edogawa),2021-08-18,07:01～08:00,0.0433,0.0368,0.0401,
江戸川 (Edogawa),2021-08-18,06:01～07:00,0.0437,0.0370,0.0400,
江戸川 (Edogawa),2021-08-18,05:01～06:00,0.0422,0.0362,0.0392,
江戸川 (Edogawa),2021-08-18,04:01～05:00,0.0422,0.0378,0.0397,
江戸川 (Edogawa),2021-08-18,03:01～04:00,0.0432,0.0363,0.0396,
江戸川 (Edogawa),2021-08-18,02:01～03:00,0.0430,0.0367,0.0396,
江戸川 (Edogawa),2021-08-18,01:01～02:00,0.0425,0.0361,0.0397,
江戸川 (Edogawa),2021-08-18,00:01～01:00,0.0429,0.0371,0.0397,
江戸川 (Edogawa),2021-08-17,23:01～24:00,0.0432,0.0370,0.0395,
江戸川 (Edogawa),2021-08-17,22:01～23:00,0.0437,0.0370,0.0400,
江戸川 (Edogawa),2021-08-17,21:01～22:00,0.0420,0.0365,0.0397,
江戸川 (Edogawa),2021-08-17,20:01～21:00,0.0432,0.0372,0.0399,
江戸川 (Edogawa),2021-08-17,19:01～20:00,0.0438,0.0366,0.0399,
江戸川 (Edogawa),2021-08-17,18:01～19:00,0.0426,0.0370,0.0400,
江戸川 (Edogawa),2021-08-17,17:01～18:00,0.0434,0.0372,0.0400,
江戸川 (Edogawa),2021-08-17,16:01～17:00,0.0426,0.0381,0.0403,
江戸川 (Edogawa),2021-08-17,15:01～16:00,0.0449,0.0376,0.0403,
江戸川 (Edogawa),2021-08-17,14:01～15:00,0.0430,0.0375,0.0408,
江戸川 (Edogawa),2021-08-17,13:01～14:00,0.0443,0.0372,0.0405,
江戸川 (Edogawa),2021-08-17,12:01～13:00,0.0433,0.0368,0.0402,
江戸川 (Edogawa),2021-08-17,11:01～12:00,0.0440,0.0374,0.0412,
江戸川 (Edogawa),2021-08-17,10:01～11:00,0.0437,0.0386,0.0414,
江戸川 (Edogawa),2021-08-17,09:01～10:00,0.0426,0.0385,0.0406,
江戸川 (Edogawa),2021-08-17,08:01～09:00,0.0433,0.0372,0.0405,
江戸川 (Edogawa),2021-08-17,07:01～08:00,0.0442,0.0370,0.0402,
江戸川 (Edogawa),2021-08-17,06:01～07:00,0.0428,0.0368,0.0400,
江戸川 (Edogawa),2021-08-17,05:01～06:00,0.0421,0.0365,0.0397,
江戸川 (Edogawa),2021-08-17,04:01～05:00,0.0427,0.0378,0.0402,
江戸川 (Edogawa),2021-08-17,03:01～04:00,0.0433,0.0380,0.0402,
江戸川 (Edogawa),2021-08-17,02:01～03:00,0.0434,0.0380,0.0404,
江戸川 (Edogawa),2021-08-17,01:01～02:00,0.0434,0.0367,0.0401,
江戸川 (Edogawa),2021-08-17,00:01～01:00,0.0425,0.0369,0.0400,
江戸川 (Edogawa),2021-08-16,23:01～24:00,0.0431,0.0374,0.0401,
江戸川 (Edogawa),2021-08-16,22:01～23:00,0.0434,0.0370,0.0397,
江戸川 (Edogawa),2021-08-16,21:01～22:00,0.0433,0.0368,0.0400,
江戸川 (Edogawa),2021-08-16,20:01～21:00,0.0438,0.0370,0.0399,
江戸川 (Edogawa),2021-08-16,19:01～20:00,0.0438,0.0373,0.0400,
江戸川 (Edogawa),2021-08-16,18:01～19:00,0.0438,0.0379,0.0407,
江戸川 (Edogawa),2021-08-16,17:01～18:00,0.0446,0.0378,0.0412,
江戸川 (Edogawa),2021-08-16,16:01～17:00,0.0441,0.0381,0.0415,
江戸川 (Edogawa),2021-08-16,15:01～16:00,0.0460,0.0407,0.0431,
江戸川 (Edogawa),2021-08-16,14:01～15:00,0.0460,0.0381,0.0427,
江戸川 (Edogawa),2021-08-16,13:01～14:00,0.0437,0.0379,0.0409,
江戸川 (Edogawa),2021-08-16,12:01～13:00,0.0440,0.0378,0.0408,
江戸川 (Edogawa),2021-08-16,11:01～12:00,0.0446,0.0377,0.0407,
江戸川 (Edogawa),2021-08-16,10:01～11:00,0.0430,0.0378,0.0404,
江戸川 (Edogawa),2021-08-16,09:01～10:00,0.0434,0.0380,0.0409,
江戸川 (Edogawa),2021-08-16,08:01～09:00,0.0442,0.0375,0.0404,
江戸川 (Edogawa),2021-08-16,07:01～08:00,0.0431,0.0368,0.0403,
江戸川 (Edogawa),2021-08-16,06:01～07:00,0.0439,0.0372,0.0407,
江戸川 (Edogawa),2021-08-16,05:01～06:00,0.0446,0.0371,0.0403,
江戸川 (Edogawa),2021-08-16,04:01～05:00,0.0435,0.0371,0.0402,
江戸川 (Edogawa),2021-08-16,03:01～04:00,0.0450,0.0377,0.0408,
江戸川 (Edogawa),2021-08-16,02:01～03:00,0.0439,0.0378,0.0410,
江戸川 (Edogawa),2021-08-16,01:01～02:00,0.0443,0.0390,0.0413,
江戸川 (Edogawa),2021-08-16,00:01～01:00,0.0434,0.0369,0.0401,
